sat.trackr.live / text

‹ back to catalog

2024-205A

NORAD 61894 · 2024-205A

PAYLOAD ACTIVE UNKNOWN

§ Identity

Operator
Country
PRC
Launch date
2024-11-11
Launch site
JSC
Launch vehicle
Mass (kg)
RCS (m²)

External: N2YO · Heavens-Above · Gunter

§ Orbital elements

Epoch: 2026-05-25T05:05:49.807392Z

Period
95.27 min
Inclination
97.4134°
Eccentricity
0.0015438
Mean motion
15.11511329 rev/d
Perigee alt
520.9 km
Apogee alt
542.3 km
Semi-major
6,909.7 km
B*
4.6073e-4
RAAN
215.9821°
Arg perigee
232.4733°
Mean anomaly
127.5095°
Rev number
8,473

§ Raw data

2024-205A1 61894U 24205A   26145.21238203  .00007765  00000+0  46073-3 0  99972 61894  97.4134 215.9821 0015438 232.4733 127.5095 15.11511329 84731

JSON: /api/v1/satellites/61894 · /tle

For live sub-satellite position, see the globe view (requires WebGL).

§ Visibility from observer

Set your observer location to see the next 7 days of passes ≥ 10°. The values pass through the URL so the page stays shareable.

No JS? Fill the form by hand. The geolocation button needs JavaScript.